TIME,DELAY(SENSOR),PRES,T(CTD),SAL,OXYGEN,RAWTEMP,T(OPTODE),TCPHASE,FLUOR,BETA(BETA700),BETA(BETA412),BETA(BETA440),CDOM,C(CSC),ED(ED411.90),ED(ED443.80),ED(ED489.40),ED(ED554.70),LU(LU412.20),LU(LU443.80),LU(LU489.40),LU(LU555.00),COMP,TILTX,TILTX(TILTY),CHECK
1348586239,5808,496.7699890136719000,17.5963001251220700,36.4864997863769500,236.3128967285156200,168.7227935791015600,17.5915508270263670,30.8516292572021500,51,100,96,75,59,13218,2146954669,2147515940,2147266806,2147465572,2147085211,2146955849,2147652818,2147128292,1834,-1,8,27469
1348586354,5806,485.8999938964844000,17.6502990722656250,36.4966011047363300,236.2743072509765600,166.7088928222656200,17.6523208618164060,30.8260707855224600,50,101,94,77,59,13219,2146958354,2147516964,2147265453,2147464466,2147085412,2146959360,2147658230,2147124726,1198,-1,8,19457
1348586469,5806,475.0000000000000000,17.7229003906250000,36.5099983215332000,237.8840942382812500,164.5478057861328000,17.7175502777099600,30.7201900482177730,50,101,96,76,58,13220,2146955145,2147516105,2147264164,2147460498,2147084297,2146960027,2147654491,2147128941,869,-1,8,3539
1348586586,5804,463.9700012207031000,17.7808990478515620,36.5205993652343750,238.2138977050781200,162.6380004882812500,17.7751998901367200,30.6790695190429700,51,100,96,75,59,13219,2146955456,2147515995,2147270390,2147461412,2147086866,2146961810,2147650678,2147123026,479,-1,8,20599
1348586701,5804,453.3399963378906000,17.8285999298095700,36.5284996032714840,238.8466033935547000,160.9924926757812500,17.8248691558837900,30.6268196105957030,50,102,96,77,58,13220,2146954322,2147515584,2147268726,2147462509,2147088630,2146959241,2147656886,2147127040,3191,-1,8,45029
1348586830,5804,441.5299987792969000,17.8834991455078120,36.5369987487793000,239.1269989013672000,159.2386016845703000,17.8778190612792970,30.5902805328369140,50,100,95,77,59,13217,2146952877,2147516800,2147263698,2147461193,2147087424,2146957339,2147656941,2147126656,2848,-1,8,41108
1348586957,5804,430.1000061035156000,17.9087009429931640,36.5387001037597660,237.8285980224609400,158.3061981201172000,17.9059791564941400,30.6391792297363280,50,99,96,74,59,13220,2146952987,2147514340,2147263890,2147461842,2147088713,2146962221,2147653604,2147125979,2940,-1,8,47584
1348587084,5805,418.7999877929687500,17.9535999298095700,36.5457992553710940,237.3260955810547000,156.8502044677734400,17.9499397277832030,30.6437206268310550,50,102,96,75,60,13217,2146957641,2147513353,2147263259,2147458002,2147090688,2146962121,2147654317,2147125833,3019,-1,8,6851
1348587201,5806,408.5000000000000000,18.0049991607666000,36.5522003173828100,237.0027008056640600,155.1831054687500000,18.0002803802490230,30.6367702484130860,51,99,96,76,58,13218,2146954870,2147515666,2147264100,2147459657,2147086683,2146959360,2147657069,2147129371,2499,-1,8,10386
1348587328,5803,397.5700073242187500,18.0379009246826170,36.5582008361816400,236.6069030761718800,154.0023956298828000,18.0359401702880860,30.6401691436767580,50,102,96,76,58,13218,2146952521,2147517403,2147261942,2147459318,2147085376,2146957952,2147655067,2147127542,2118,-2,8,43897
1348587457,5805,386.6099853515625000,18.0804004669189450,36.5620002746582000,236.1166992187500000,152.6654968261718800,18.0763206481933600,30.6455707550048830,50,101,96,75,58,13215,2146955145,2147516717,2147263616,2147461019,2147083200,2146961929,2147654893,2147124516,1910,-2,8,42974
1348587596,5804,374.9100036621094000,18.1277999877929700,36.5672988891601560,235.7386016845703000,151.0946044921875000,18.1237697601318360,30.6426906585693360,50,104,96,78,59,13217,2146953801,2147512786,2147263350,2147457819,2147085083,2146962688,2147653650,2147125979,1369,-1,8,30297
1348587723,5808,364.1499938964844000,18.1755008697509770,36.5728988647460940,235.1454010009765600,149.3692016601562500,18.1758995056152340,30.6482906341552730,50,102,95,76,59,13214,2146951862,2147517101,2147264356,2147459081,2147081892,2146959204,2147655945,2147125933,1764,-1,8,4551
1348587852,5810,353.0700073242187500,18.2311000823974600,36.5784988403320300,234.4633026123047000,147.7216033935547000,18.2256698608398440,30.6591606140136720,50,103,95,76,60,13215,2146953243,2147513965,2147266907,2147459785,2147081289,2146962404,2147659026,2147125266,1691,-2,8,42497
1348587979,5803,342.1600036621094000,18.2793006896972660,36.5834007263183600,233.8618927001953000,146.0798950195312500,18.2752799987792970,30.6664695739746100,50,101,96,76,59,13215,2146956041,2147514852,2147265508,2147459648,2147073325,2146958262,2147652452,2147124077,1684,-1,8,38033
1348588108,5807,331.0799865722656000,18.3337993621826170,36.5881996154785160,233.6517028808593800,144.1988067626953000,18.3321304321289060,30.6516094207763670,50,102,96,76,60,13217,2146954377,2147512402,2147263286,2147461723,2147080118,2146959707,2147657197,2147124178,1108,-1,9,49447
1348588235,5805,320.2699890136719000,18.3994998931884770,36.5937995910644500,232.2205963134765600,142.1499938964843800,18.3940505981445300,30.6937904357910160,51,103,95,76,60,13214,2146953106,2147514102,2147263853,2147457682,2147083958,2146961536,2147656621,2147126217,1341,-2,9,32909
1348588362,5805,309.7200012207031000,18.4638996124267580,36.5979995727539060,230.7310943603515600,139.5971984863281200,18.4712200164794920,30.7322807312011720,50,101,95,77,59,13212,2146954934,2147513362,2147265618,2147457865,2147078409,2146962020,2147661001,2147124352,1180,-2,8,59430
1348588503,5806,298.2999877929687500,18.5415000915527340,36.6003990173339840,229.6329040527343800,137.4947967529297000,18.5347900390625000,30.7584209442138670,50,100,96,76,59,13211,2146956178,2147511469,2147262985,2147458752,2147086921,2146960301,2147658752,2147128640,814,-1,8,53595
1348588642,5808,287.4500122070312500,18.6035003662109380,36.5993995666503900,228.7073059082031200,135.3209991455078000,18.6005191802978500,30.7750797271728500,52,100,95,75,59,13215,2146955419,2147510290,2147263360,2147456914,2147088822,2146961718,2147654582,2147127990,560,-2,8,33401
1348588789,5808,274.9100036621094000,18.7749996185302730,36.6085014343261700,227.6269989013672000,129.3686981201172000,18.7805805206298830,30.7494392395019530,52,101,95,76,58,13214,2146953810,2147512795,2147263158,2147455021,2147078976,2146958198,2147659273,2147128073,381,-1,8,59819
1348588904,5808,263.4200134277344000,18.9102993011474600,36.6002998352050800,230.2122039794922000,125.3270034790039000,18.9028892517089840,30.5681304931640620,51,100,95,76,59,13213,2146953837,2147514596,2147265782,2147454226,2147082852,2146971986,2147677248,2147126509,833,-1,8,49733
1348589019,5806,252.1799926757812500,18.9785995483398440,36.5796012878418000,236.7931976318359400,123.0577011108398400,18.9715805053710940,30.2213401794433600,51,103,95,76,58,13211,2146954011,2147515190,2147261988,2147455579,2147077613,2146967040,2147657737,2147128082,878,-1,8,1743
1348589136,5807,240.8999938964843800,19.0765991210937500,36.5727005004882800,242.5998992919922000,119.4052963256836000,19.0821704864501950,29.9025306701660160,50,102,95,76,58,13213,2146957302,2147516681,2147260790,2147452726,2147075236,2146970532,2147673252,2147126162,276,-1,8,38462
1348589251,5807,229.8500061035156200,19.2175998687744140,36.5898017883300800,243.9963989257812500,115.1680984497070300,19.2105102539062500,29.7832698822021500,51,107,97,75,58,13212,2146954788,2147514569,2147266861,2147456045,2147083172,2146997494,2147738450,2147129353,762,-2,8,8625
1348589366,5805,219.0299987792968800,19.3139991760253900,36.6016998291015600,244.6703033447265600,111.9266967773437500,19.3087196350097660,29.7106304168701170,53,103,95,76,58,13209,2146954395,2147512832,2147261805,2147450742,2147082697,2146976484,2147678921,2147125412,726,-1,8,36413
1348589483,5807,208.1799926757812500,19.3141994476318360,36.5847015380859400,247.6956024169922000,112.0389022827148400,19.3053207397460940,29.5756797790527340,55,105,94,75,57,13207,2146951588,2147514660,2147264896,2147450194,2147083474,2146981723,2147693760,2147127323,766,-1,9,64340
1348589598,5807,197.6699981689453000,19.3456993103027340,36.5821990966796900,249.5314025878906200,110.8177032470703100,19.3423309326171880,29.4780101776123050,57,105,96,76,58,13205,2146954285,2147515282,2147265965,2147454820,2147076480,2146985728,2147688420,2147126720,589,-2,8,3700
1348589653,5804,192.6300048828125000,19.3689994812011720,36.5787010192871100,250.2989959716797000,110.0146026611328100,19.3666706085205080,29.4336891174316400,62,106,96,76,57,13200,2146955136,2147514093,2147263643,2147449837,2147075931,2146982290,2147687734,2147124352,507,-1,8,35428
1348589708,5807,187.6799926757812500,19.3847007751464840,36.5779991149902340,250.6470031738281200,109.5364990234375000,19.3811702728271500,29.4123001098632800,66,109,97,77,58,13197,2146954203,2147512640,2147263433,2147453147,2147081472,2146984630,2147690377,2147128329,406,-1,8,31317
1348589783,5809,181.3600006103515600,19.4074993133544920,36.5798988342285160,250.2917938232422000,108.7021026611328100,19.4064598083496100,29.4171905517578120,70,110,96,76,57,13193,2146953572,2147511670,2147261961,2147453110,2147085430,2146989878,2147694070,2147125952,40,-1,9,59822
1348589838,5805,177.1300048828125000,19.4283008575439450,36.5815010070800800,249.7503051757812500,108.1384963989257800,19.4235496520996100,29.4337501525878900,72,109,97,77,57,13191,2146953673,2147517622,2147263460,2147449654,2147079369,2146989056,2147702765,2147128649,3521,-1,9,54641
1348589893,5803,172.9299926757812500,19.4824008941650400,36.5881004333496100,248.7915954589843800,106.6335983276367200,19.4691696166992200,29.4567604064941400,74,107,96,77,59,13192,2146953536,2147516708,2147264896,2147453805,2147085842,2147002002,2147720585,2147126756,3417,-1,9,46153
1348589948,5804,168.8000030517578000,19.5135002136230470,36.5906982421875000,247.6033020019531200,105.3442001342773400,19.5082702636718750,29.4930992126464840,77,113,97,77,58,13182,2146956498,2147517449,2147263314,2147454628,2147087981,2147007634,2147730514,2147127990,3530,-1,9,27497
1348590003,5807,164.7899932861328000,19.5380001068115230,36.5918006896972660,247.6817932128906200,104.0285034179687500,19.5481700897216800,29.4726200103759770,77,112,96,77,58,13189,2146955318,2147517110,2147264256,2147453412,2147090395,2147020708,2147743689,2147130761,3588,-2,9,45772
1348590058,5808,160.8899993896484400,19.6191005706787100,36.6057014465332000,247.0615997314453000,102.1206970214843800,19.6060390472412100,29.4758205413818360,79,111,97,77,59,13186,2146956379,2147516480,2147266084,2147451081,2147096100,2147035200,2147769170,2147132498,3536,-1,9,27815
1348590137,5807,156.0500030517578000,19.6928005218505860,36.5938987731933600,250.4250030517578000,99.4497528076171900,19.6870708465576170,29.2921104431152340,83,112,99,78,59,13179,2146954779,2147516315,2147269357,2147451968,2147100169,2147059931,2147812342,2147134473,3450,-2,9,55200
1348590216,5804,152.2599945068359400,19.8150005340576170,36.6080017089843750,250.4638061523437500,95.7610168457031200,19.7990207672119140,29.2430706024169920,90,115,98,76,59,13171,2146954349,2147515172,2147272182,2147452754,2147105417,2147096457,2147870683,2147136768,3286,-2,9,50883
1348590295,5805,148.5599975585937500,19.8348999023437500,36.6035003662109400,251.1679992675781200,94.8436431884765600,19.8268699645996100,29.2002906799316400,91,116,98,78,59,13167,2146956818,2147520173,2147271414,2147452297,2147115748,2147127634,2147917430,2147142573,2889,-2,9,59618
1348590374,5803,144.7899932861328000,19.8241996765136720,36.5912017822265600,252.9821929931640600,95.0974731445312500,19.8191699981689450,29.1243591308593750,89,115,97,77,58,13170,2146955245,2147523062,2147274742,2147448996,2147131017,2147177398,2148003648,2147148114,3286,-1,8,19583
1348590443,5806,141.3899993896484400,19.8899993896484380,36.5960998535156250,253.9795074462890600,92.9524078369140600,19.8842906951904300,29.0540790557861330,92,113,99,77,59,13171,2146955465,2147524918,2147278537,2147451017,2147150784,2147252918,2148127542,2147155474,213,-1,9,16164
1348590522,5807,137.6499938964843800,20.0249996185302730,36.6132011413574200,254.2485046386718800,88.7675170898437500,20.0114002227783200,28.9889507293701170,89,115,96,78,59,13170,2146958692,2147535158,2147302921,2147451529,2147215616,2147545526,2148618989,2147193051,268,-1,9,57013
1348590613,5805,133.5200042724609400,20.1749992370605470,36.6328010559082000,257.9081115722656000,83.6841201782226600,20.1658802032470700,28.7681694030761720,88,111,97,77,57,13170,2146966070,2147544694,2147322669,2147451766,2147283556,2147766317,2148959899,2147219346,3495,-1,9,23320
1348590704,5808,129.4600067138672000,20.2905006408691400,36.6498985290527340,258.2578125000000000,79.9661865234375000,20.2789192199707030,28.7061996459960940,94,111,98,76,57,13161,2146966454,2147543030,2147319945,2147449600,2147309467,2147800978,2148957129,2147221275,719,-1,9,48570
1348590797,5806,125.5999984741211000,20.3614997863769530,36.6325988769531250,262.8186950683594000,77.2605361938476600,20.3612194061279300,28.4815597534179700,84,109,96,78,58,13167,2146958098,2147534125,2147293677,2147448502,2147228882,2147454692,2148369069,2147179008,671,-1,9,12879
1348590900,5805,121.9100036621093800,20.5659008026123050,36.6688995361328100,264.3110046386719000,71.2485504150390600,20.5441894531250000,28.3445396423339840,85,110,98,77,57,13166,2146956928,2147525440,2147280886,2147449929,2147198921,2147314459,2148127350,2147163364,631,-1,9,51483
1348591015,5806,118.1600036621093800,20.7539997100830080,36.6878013610839840,262.4189147949219000,64.9348297119140600,20.7364902496337900,28.3432502746582030,90,110,97,76,57,13163,2146956681,2147523392,2147280557,2147447725,2147183744,2147243556,2148006144,2147154697,961,-1,9,62010
1348591127,5805,113.7399978637695300,20.7929992675781250,36.6525001525878900,267.3493957519531000,63.3189811706543000,20.7857398986816400,28.1220397949218750,80,113,97,77,57,13161,2146960210,2147524845,2147275776,2147447945,2147192676,2147247862,2147999067,2147154139,1007,-1,9,24499
1348591218,5808,109.7300033569336000,20.9307003021240230,36.6511001586914060,272.2442016601562500,58.8801612854003900,20.9210605621337900,27.8715496063232420,79,113,98,77,57,13151,2146959259,2147527369,2147278208,2147447213,2147212379,2147277952,2148019401,2147154916,906,-1,9,36484
1348591321,5806,105.7600021362304700,21.1161994934082030,36.6338005065918000,273.2020874023437500,52.8667907714843750,21.1045303344726560,27.7594890594482420,85,115,99,79,56,13144,2146959186,2147533632,2147282633,2147444717,2147274413,2147397650,2148143122,2147167780,546,-1,9,11083
1348591438,5806,102.1999969482421900,21.3952999114990230,36.6786994934082000,274.0510864257812500,44.1503295898437500,21.3707504272460940,27.6188392639160160,85,116,98,80,55,13136,2146967168,2147533659,2147292187,2147445513,2147373686,2147579766,2148347510,2147187638,3547,-1,9,34060
1348591541,5803,99.2200012207031200,21.5128993988037100,36.6861991882324200,275.1394958496094000,40.0839500427246100,21.4950695037841800,27.5265502929687500,87,119,100,79,55,13142,2146972233,2147547648,2147311844,2147444397,2147565494,2147954550,2148773101,2147221385,259,-2,9,16170
1348591620,5807,97.3099975585937500,21.5953998565673830,36.6903991699218750,275.0978088378906000,37.3350296020507800,21.5791492462158200,27.4944095611572270,92,116,99,78,55,13134,2146982400,2147566674,2147331556,2147446144,2147764352,2148333385,2149194185,2147258221,338,-2,9,45558
1348591710,5807,95.1100006103515600,21.7523994445800780,36.6889991760253900,277.1861877441406000,32.0288810729980500,21.7415599822998050,27.3488693237304700,87,116,100,79,56,13131,2146988324,2147579721,2147347081,2147445778,2147969974,2148696484,2149565522,2147290176,585,-1,9,56358
1348591777,5803,92.7399978637695300,21.8528003692626950,36.6991996765136700,278.3322143554687500,28.9207000732421880,21.8367595672607420,27.2670898437500000,90,117,100,79,55,13125,2147000292,2147593929,2147363565,2147442560,2148185179,2149035876,2149917558,2147321142,815,-1,9,9378
1348591832,5807,90.7300033569336000,21.9958992004394530,36.7080993652343750,278.6734008789062500,24.0095195770263670,21.9872703552246100,27.1942100524902340,91,118,101,79,54,13123,2147006098,2147606848,2147374738,2147445120,2148366290,2149315254,2150169362,2147346395,1031,-2,9,29166
1348591887,5808,88.7900009155273400,22.0965995788574220,36.7098999023437500,279.0517883300781000,20.9558200836181640,22.0809307098388670,27.1426391601562500,88,124,100,79,55,13124,2147008740,2147613430,2147382985,2147443748,2148521499,2149523529,2150362925,2147365110,910,-1,8,3461
1348591942,5807,87.0599975585937500,22.1243000030517580,36.7080993652343750,280.0244140625000000,19.7467308044433600,22.1180191040039060,27.0912609100341800,91,118,100,79,55,13128,2147025947,2147623972,2147398546,2147444022,2148734034,2149850377,2150687460,2147393993,193,-2,9,47113
1348592021,5803,84.1399993896484400,22.2721004486084000,36.7368011474609400,279.4659118652344000,15.1693401336669920,22.2585201263427730,27.0566902160644530,86,118,99,80,56,13129,2147039241,2147645906,2147420964,2147446226,2149094253,2150332352,2151124937,2147437165,2927,-1,9,28095
1348592076,5805,81.4899978637695300,22.3246002197265620,36.6612014770507800,278.5205993652344000,13.3003396987915040,22.3159294128417970,27.0697898864746100,88,119,99,78,55,13129,2147053074,2147662646,2147438116,2147444224,2149433819,2150791296,2151548041,2147479323,2997,-2,9,24715
1348592131,5805,79.3399963378906200,22.5284996032714840,36.6688995361328100,277.9208068847656000,6.6112251281738280,22.5215206146240230,27.0114994049072270,92,116,100,79,57,13122,2147074660,2147690230,2147472000,2147444836,2149928539,2151540077,2152283291,2147553508,3227,-2,9,49625
1348592186,5804,77.8300018310546900,22.7479991912841800,36.6837005615234400,278.9656982421875000,0.1082808002829552,22.7216300964355470,26.8931102752685550,90,118,100,80,55,13122,2147098258,2147720713,2147511899,2147450779,2150458386,2152337462,2153091282,2147632192,2954,-2,9,16208
1348592253,5803,76.5999984741211000,22.9776000976562500,36.6897010803222660,279.6517944335937500,-6.7182269096374510,22.9319591522216800,26.7849102020263670,93,117,98,78,55,13119,2147100461,2147720347,2147504374,2147450395,2150414272,2152160640,2152818505,2147609517,2348,-2,9,18276
1348592332,5803,75.2200012207031200,23.1343002319335940,36.6713981628418000,279.4782104492187500,-12.6659002304077150,23.1154308319091800,26.7199306488037100,91,120,100,80,55,13116,2147099145,2147714432,2147495122,2147447771,2150405988,2151990454,2152535917,2147584146,2115,-2,9,45168
1348592411,5804,73.2900009155273400,23.3218002319335940,36.6188011169433600,279.1946105957031000,-18.1778907775878900,23.2856597900390620,26.6642799377441400,95,117,101,79,54,13108,2147109165,2147722550,2147499154,2147445211,2150605622,2152136411,2152564909,2147592768,1685,-2,9,61981
1348592681,5803,71.3000030517578100,23.6007003784179700,36.6422004699707000,250.3518066406250000,-28.0224990844726560,23.5901508331298830,27.6970291137695300,109,124,101,80,56,13088,2147223698,2147880091,2147684736,2147455186,2153516324,2156386651,2156700114,2148011657,1560,-2,9,40245
1348592760,5804,69.0500030517578100,23.7830009460449220,36.6515998840332000,243.8506927490234400,-33.4460716247558600,23.7581691741943360,27.9113006591796880,111,125,100,80,56,13080,2147301046,2147977810,2147794349,2147464649,2155292681,2158803849,2159047012,2148275894,1412,-2,9,6373
1348592827,5803,66.8899993896484400,23.8479003906250000,36.5988998413085940,241.0783996582031200,-35.8133010864257800,23.8315696716308600,28.0043106079101560,110,123,100,80,57,13084,2147437824,2148151945,2148002514,2147478262,2158393572,2163194761,2163371648,2148740068,1429,-1,9,44645
1348592882,5806,65.4499969482421900,23.9659004211425780,36.5677986145019500,243.7149047851562500,-38.2211494445800800,23.9062595367431640,27.8584003448486330,102,124,100,80,56,13090,2147501952,2148232420,2148100580,2147485101,2159671744,2164795730,2164845988,2148913938,1274,-1,9,30710
1348592961,5807,64.0299987792968800,24.1203994750976560,36.5371017456054700,247.0997924804687500,-44.6282997131347660,24.1051998138427730,27.6326904296875000,96,125,101,80,55,13087,2147645650,2148407634,2148268781,2147495186,2162825856,2169052013,2168847524,2149371748,1732,-2,8,32492
1348593040,5807,62.4199981689453100,24.2513008117675780,36.5134010314941400,252.0019073486328000,-48.9815597534179700,24.2405300140380860,27.3710803985595700,92,122,101,80,54,13095,2147694253,2148449956,2148355638,2147510473,2163371017,2169209307,2168547712,2149380662,914,-2,9,47090
1348593215,5807,60.6599998474121100,24.4123001098632800,36.5051002502441400,255.1723022460937500,-53.9448699951171900,24.3949909210205080,27.1784095764160160,90,125,98,80,56,13089,2147736045,2148479963,2148369974,2147511524,2164204781,2169758637,2168612150,2149416832,854,-2,9,43225
1348593342,5804,58.4199981689453100,24.7129001617431640,36.4864997863769500,255.9691009521484400,-63.4611892700195300,24.6916198730468750,27.0302104949951170,88,125,100,80,55,13086,2148066962,2148856128,2148748233,2147544393,2171024521,2178254884,2176020653,2150298176,277,-1,9,62514
1348593481,5804,56.7700004577636700,24.9636001586914060,36.4530982971191400,252.3719024658203000,-71.2994003295898400,24.9364395141601560,27.0842094421386720,90,124,99,80,53,13085,2148557568,2149433289,2149406710,2147611474,2181122944,2191250157,2187720182,2151680649,348,-1,9,19817
1348593643,5805,55.3600006103515600,25.2042999267578120,36.4193000793457000,253.5572052001953000,-79.4130783081054700,25.1903495788574220,26.9367504119873050,84,128,101,80,54,13084,2149107099,2150066395,2150090240,2147680484,2192464530,2205300608,2199787949,2153109668,418,-2,9,48117
1348593898,5806,53.8400001525878900,25.4510993957519530,36.3927993774414060,256.9515075683594000,-87.5869369506836000,25.4466495513916000,26.6990299224853500,81,126,102,81,56,13077,2148752612,2149552530,2149277686,2147572708,2185594358,2194491254,2188649938,2151901906,1792,-2,10,14817
1348593970,5807,51.8699989318847660,25.8316993713378900,36.3726005554199200,256.1507873535156000,-98.7197113037109400,25.7965908050537100,26.5975608825683600,79,127,102,81,52,13069,2149014902,2149829056,2149593682,2147619593,2190208822,2199269339,2192122057,2152338944,1247,-1,9,53630
1348594260,5802,49.7799987792968750,26.0604991912841800,36.3592987060546900,253.6535034179687500,-106.8535003662109400,26.0529003143310550,26.6019897460937500,77,128,102,80,54,13071,2149847497,2150683510,2150257984,2147655387,2208766948,2221143488,2209695698,2154562157,2920,-2,9,380
1348594557,5805,47.6500015258789060,26.6380996704101560,36.3022003173828100,240.0596008300781200,-125.1596984863281200,26.6318092346191400,26.9558506011962900,78,127,102,80,54,13058,2150232018,2151071259,2150473069,2147668699,2219126107,2231861385,2216552886,2155437650,2409,-1,9,4659
1348594853,5802,45.7999992370605500,27.1142997741699220,36.2635002136230500,236.9279022216797000,-140.4799957275390600,27.1185703277587900,26.9071598052978500,70,128,101,80,54,13067,2150849097,2151677970,2151056091,2147727085,2230900489,2244838546,2226085659,2156748937,3202,-2,9,54921
1348595006,5808,43.9300003051757800,27.3612003326416000,36.2402000427246100,236.1112060546875000,-148.1571044921875000,27.3633003234863280,26.8500709533691400,71,125,102,78,53,13065,2150384832,2151099858,2150424329,2147676589,2223046957,2233722779,2215497645,2155634441,2792,-2,9,52667
1348595170,5808,41.8100013732910160,27.4508991241455080,36.2355995178222660,235.9989929199218800,-151.0110931396484400,27.4544200897216800,26.8201694488525400,70,123,99,80,53,13063,2151482715,2152205001,2151356388,2147774893,2240966500,2252716452,2229729225,2157863561,2821,-2,9,12199
1348595239,5803,39.7900009155273440,27.5571002960205080,36.1488990783691400,235.3675994873047000,-153.9763946533203000,27.5491695404052730,26.8122901916503900,65,117,100,80,52,13072,2149860516,2150376054,2149648740,2147623862,2208141549,2212227309,2195688283,2153340434,2212,-1,9,38480